This is the latest recevied weather packets stored in our database for station/object ES0THZ-13. If no packets are shown the sender has not sent any weather packets the latest 10 day(s).
| Time | Temp. | Humidity | Pressure | Rain* | Wind** | Luminosity | Snow |
|---|---|---|---|---|---|---|---|
| 1777965776 | 13.33° C | 76% | 1001.7 hPa | - | - | - | - |
| 1777964631 | 13.33° C | 76% | 1002.4 hPa | - | - | - | - |
| 1777963576 | 13.33° C | 76% | 1000.1 hPa | - | - | - | - |
| 1777962556 | 13.33° C | 77% | 1001.5 hPa | - | - | - | - |
| 1777961476 | 12.78° C | 77% | 1000.9 hPa | - | - | - | - |
| 1777960436 | 12.78° C | 78% | 1000.7 hPa | - | - | - | - |
| 1777959296 | 11.67° C | 81% | 1001.6 hPa | - | - | - | - |
| 1777958198 | 11.67° C | 81% | 1000.7 hPa | - | - | - | - |
| 1777957216 | 11.67° C | 82% | 1000.1 hPa | - | - | - | - |
| 1777956116 | 11.67° C | 82% | - | - | - | - | - |
| 1777955021 | 11.67° C | 82% | 1000.5 hPa | - | - | - | - |
| 1777953941 | 11.11° C | 83% | 1000.8 hPa | - | - | - | - |
| 1777952836 | 10° C | 85% | 1000.5 hPa | - | - | - | - |
| 1777951771 | 8.89° C | 85% | - | - | - | - | - |
| 1777950696 | 7.78° C | 86% | - | - | - | - | - |
| 1777949621 | 6.67° C | 87% | 1000.3 hPa | - | - | - | - |
| 1777948516 | 5.56° C | 88% | 1000.9 hPa | - | - | - | - |
| 1777947396 | 6.11° C | 88% | - | - | - | - | - |
| 1777946251 | 5.56° C | 88% | 1001.6 hPa | - | - | - | - |
| 1777945206 | 5.56° C | 88% | 1000.2 hPa | - | - | - | - |
| 1777944121 | 5.56° C | 88% | 1000.6 hPa | - | - | - | - |
| 1777942941 | 6.11° C | 88% | 1000.3 hPa | - | - | - | - |
| 1777941821 | 6.67° C | 87% | 1000.5 hPa | - | - | - | - |
| 1777940746 | 6.67° C | 87% | 1001.7 hPa | - | - | - | - |
| 1777939681 | 7.22° C | 87% | 1000.4 hPa | - | - | - | - |
* Rain since midnight (hover to see other rain measurements)
** Current wind speed in m/s (hover to see current wind gust speed)